Home   Weather   Weyhe   Past weeks

Flag for Germany Past Weather in Weyhe, Lower Saxony, Germany — Yesterday and Last 2 Weeks

Now
19 °F

Passing clouds.


Feels Like: 19 °F
Forecast: 23 / 37 °F
Wind: No wind

Location: Bremen Airport

Current Time: Dec 6, 2016 at 4:04:29 am

Latest Report: Dec 6, 2016 at 3:20 am


Visibility: 6 mi

Pressure: 30.39 "Hg

Humidity: 93%

Dew Point: 18 °F

Location of WeyheLocation

Past Weather in Weyhe — Graph

°F

Weyhe Temperature Yesterday

Maximum temperature yesterday: 32 °F (at 1:20 pm)
Minimum temperature yesterday: 18 °F (at 5:50 am)
Average temperature yesterday: 24 °F

High & Low Weather Summary for the Past Weeks

 TemperatureHumidityPressure
High57 °F (Nov 21, 11:20 am)100% (Nov 23, 9:20 pm)30.60 "Hg (Nov 23, 9:20 pm)
Low18 °F (Nov 29, 7:20 am)57% (Dec 2, 1:20 pm)29.56 "Hg (Nov 21, 5:20 am)
Average37 °F87%30.20 "Hg
* Reported Nov 21 2:20 am — Dec 6 2:50 am, Weyhe, Weather by CustomWeather, © 2016

Note: Actual official high and low records may vary slightly from our data, if they occured in-between our weather recording intervals... More about our weather records

Advertising

Weyhe Weather History for the Previous 24 Hours

Scroll right to see more
 ConditionsComfort  
Time TempWeatherWind HumidityBarometerVisibility
2:50 am
Tue, Dec 6
19 °FPassing clouds.No wind86%30.39 "Hg6 mi
2:20 am19 °FPassing clouds.No wind86%30.36 "Hg6 mi
1:50 am19 °FIce fog.No wind100%30.36 "Hg2 mi
1:20 am19 °FIce fog.2 mph100%30.36 "Hg0 mi
12:50 am19 °FIce fog.1 mph100%30.36 "Hg0 mi
12:20 am21 °FIce fog.No wind100%30.36 "Hg0 mi
11:50 pm
Mon, Dec 5
21 °FIce fog.1 mph100%30.36 "Hg1 mi
11:20 pm21 °FIce fog.2 mph93%30.36 "Hg1 mi
10:50 pm21 °FIce fog.No wind93%30.36 "Hg1 mi
10:20 pm21 °FIce fog.No wind100%30.36 "Hg0 mi
9:50 pm21 °FIce fog.1 mph100%30.36 "Hg0 mi
9:20 pm21 °FIce fog.2 mph93%30.33 "Hg0 mi
8:50 pm21 °FIce fog.No wind93%30.33 "Hg0 mi
8:20 pm21 °FIce fog.No wind100%30.33 "Hg0 mi
7:50 pm21 °FIce fog.2 mph93%30.33 "Hg0 mi
7:20 pm23 °FIce fog.2 mph100%30.33 "Hg0 mi
6:50 pm23 °FIce fog.1 mph93%30.33 "Hg0 mi
6:20 pm23 °FIce fog.No wind100%30.33 "Hg1 mi
5:50 pm23 °FIce fog.No wind100%30.33 "Hg1 mi
5:20 pm27 °FSnow. Overcast.1 mph93%30.33 "Hg1 mi
4:50 pm27 °FChilly.No wind100%30.33 "Hg5 mi
4:20 pm30 °FFog.1 mph93%30.33 "HgN/A
3:50 pm30 °FSunny.2 mph93%30.33 "Hg10 mi
3:20 pm32 °FSunny.2 mph87%30.30 "Hg10 mi
2:50 pm32 °FSunny.3 mph87%30.30 "Hg10 mi
2:20 pm32 °FSunny.2 mph93%30.30 "Hg10 mi
1:50 pm30 °FSunny.2 mph86%30.30 "Hg10 mi
1:20 pm32 °FSunny.No wind87%30.33 "Hg10 mi
12:50 pm30 °FSunny.2 mph93%30.33 "Hg10 mi
12:20 pm30 °FSunny.No wind93%30.33 "Hg10 mi
11:50 am28 °FSunny.No wind93%30.33 "Hg10 mi
11:20 am28 °FSunny.1 mph93%30.33 "Hg10 mi
10:50 am27 °FSunny.2 mph93%30.33 "Hg10 mi
10:20 am25 °FSunny.1 mph100%30.36 "Hg10 mi
9:50 am25 °FSunny.1 mph93%30.33 "Hg10 mi
9:20 am23 °FSunny.2 mph93%30.33 "Hg10 mi
8:50 am18 °FClear.2 mph93%30.33 "Hg5 mi
8:20 am18 °FIce fog.2 mph100%30.33 "Hg3 mi
7:50 am19 °FFog.1 mph93%30.33 "Hg4 mi
7:20 am18 °FClear.2 mph100%30.33 "Hg10 mi
6:50 am21 °FFog.2 mph93%30.33 "HgN/A
6:20 am21 °FFog.3 mph93%30.33 "Hg6 mi
5:50 am18 °FIce fog.No wind93%30.33 "Hg3 mi
5:20 am19 °FFog.No wind93%30.36 "Hg5 mi
4:50 am21 °FClear.1 mph93%30.36 "Hg10 mi
4:20 am21 °FClear.2 mph100%30.36 "Hg10 mi
Weather by CustomWeather, © 2016

See weather overviewHow to use our weather pages